Notices

What's New in latest Release from April 7th, 2021:

- Updated Glossary, including Speed of Maximum Gust, and Total Hourly Precipitation

- Updated national and regional climate services offices contacts and prices information

- Addition of station inventory lists for 1981-2010, 1971-2000, and 1961-1990 Normals.

If you haven't already, please take our survey and provide feedback about our website: https://eccc.sondage-survey.ca/f/LanguageSelection.aspx?s=442ca660-fcf1-47c0-95a9-59707d6fd709

Hourly Data Report for September 10, 2019

QUALICUM BEACH AIRPORT
BRITISH COLUMBIA
Current Station Operator: ECCC - MSC

49°20'14.000" N
124°23'38.000" W
58.20 m
1026562
71766
VOQ

Download Data

Hourly Data (September 2019)
Hourly Data Report for September 10, 2019
TIME
LST
Temp Definition
°C
Dew Point Definition
°C
Rel Hum Definition
%
Precip. Amount Definition
mm

Wind Dir Definition
10's deg

Wind Spd Definition
km/h
Visibility Definition
km
Stn Press Definition
kPa
Hmdx Definition


Wind Chill Definition


Weather Definition


00:00 13.4 12.6 95 0.0 16 3   100.52     LegendNANA
01:00 13.3 12.5 95 0.0   0   100.54     LegendNANA
02:00 13.8 12.9 95 0.0 0 1   100.56     LegendNANA
03:00 13.5 12.6 94 0.0   0   100.58     LegendNANA
04:00 13.6 12.7 94 0.0   0   100.59     LegendNANA
05:00 13.8 12.7 94 0.0 25 1   100.59     LegendNANA
06:00 13.7 12.8 94 0.0 14 3   100.63     LegendNANA
07:00 15.1 13.4 90 0.0 27 5   100.66     LegendNANA
08:00 16.0 13.9 88 0.0 30 11   100.70     LegendNANA
09:00 16.9 14.2 84 0.0 29 4   100.74     LegendNANA
10:00 17.3 13.9 81 0.0 3 5   100.74     LegendNANA
11:00 17.9 14.3 80 0.0 4 5   100.76     LegendNANA
12:00 18.3 14.4 78 0.0 36 4   100.73     LegendNANA
13:00 18.9 14.3 74 0.0 4 7   100.70     LegendNANA
14:00 20.0 13.4 66 0.0 36 6   100.67     LegendNANA
15:00 21.1 12.9 59 0.0 5 5   100.65     LegendNANA
16:00 21.1 12.2 57 0.0 3 5   100.63     LegendNANA
17:00 20.6 12.1 58 0.0 9 6   100.64     LegendNANA
18:00 19.8 12.2 62 0.0 9 3   100.67     LegendNANA
19:00 17.0 12.6 75 0.0 17 2   100.72     LegendNANA
20:00 15.0 12.5 85 0.0 0 1   100.78     LegendNANA
21:00 14.5 12.3 87 0.0 30 1   100.82     LegendNANA
22:00 13.5 12.3 93 0.0 0 1   100.87     LegendNANA
23:00 12.3 11.4 94 0.0 15 4   100.88     LegendNANA

Notes on Data Quality.

Legend

  • E = Estimated
  • M = Missing
  • NA = Not Available*
  • [empty] = Indicates an unobserved value
Date modified: